[[{"header":{"parameterUnit":"m.s-1","parameterCategory":2,"la1":30.2991,"la2":30.254,"lo1":-89.0895,"lo2":-89.0444,"dy":0.0017,"dx":0.0017,"nx":28,"ny":28,"refTime":"2023-09-13T09:00:00:Z","depth":"0","parameterNumber":2,"parameterNumberName":"U-component_of_CURRENTS"},"data":[0,0,0,0,0,0,0,0,0,0,0,0,0,0,0,0,0,0,0,0,0,0,0,0,0,0,0,0,0,0,0,0,0,0,0,0,0,0,0,0,0,0,0,0,0,0,0,0,0,0,0,0,0,0,0,0,0,0,0.133,0.1331,0,0.1371,0.1371,0.1372,0.1405,0.1406,0.1406,0.1407,0.1492,0.1494,0.1495,0,0,0,0,0,0,0,0,0,0,0,0,0,0.1279,0.128,0.133,0.1331,0.1332,0.1371,0.1371,0.1372,0.1405,0.1406,0.1406,0.1407,0.1491,0.1493,0.1495,0,0,0,0,0,0,0,0,0,0,0,0,0,0.1307,0.128,0.133,0.1354,0.1357,0.1371,0.1371,0.1372,0.1405,0.1406,0.1407,0.1407,0.1491,0.1493,0.1496,0.1496,0,0,0.1504,0.1505,0,0,0,0,0,0,0,0,0.1305,0.1308,0.135,0.1353,0.1356,0.1386,0.1385,0.1416,0.1405,0.1385,0.1407,0.1408,0.1461,0.1466,0.1469,0.15,0.1504,0.1504,0.1506,0.1507,0.1508,0,0,0,0,0,0,0,0.1303,0.1307,0.1345,0.1351,0.1354,0.1363,0.1367,0.139,0.1417,0.1387,0.139,0.1397,0.1463,0.1466,0.1471,0.1505,0.1504,0.1506,0.1508,0.1509,0.16,0.16,0,0,0,0,0,0,0.1301,0.1305,0.1343,0.1346,0.1334,0.1363,0.1368,0.1374,0.1416,0.1424,0.1396,0.1398,0.1461,0.1468,0.1474,0.1527,0.1507,0.1509,0.1511,0.1599,0.16,0.1601,0,0,0,0,0,0,0.13,0.1304,0.1342,0.1328,0.1334,0.1363,0.1369,0.1374,0.138,0.1423,0.1431,0.1398,0.1462,0.1471,0.1504,0.1529,0.1511,0.1513,0.1598,0.1599,0.16,0.1601,0,0,0,0,0,0,0.1298,0.1303,0.1303,0.1328,0.1334,0.135,0.1369,0.1374,0.1385,0.1388,0.1428,0.1436,0.1463,0.1499,0.1506,0.1532,0.1515,0.1597,0.1599,0.16,0.16,0.1602,0.1604,0,0,0,0,0,0.1296,0.1293,0.1303,0.1308,0.1335,0.135,0.1354,0.1376,0.1384,0.1385,0.1417,0.1435,0.1515,0.1502,0.151,0.1537,0.1596,0.1598,0.16,0.1599,0.1602,0.1604,0,0,0,0,0,0,0.1272,0.1298,0.1309,0.1314,0.1332,0.1357,0.136,0.1372,0.1395,0.1402,0.1438,0.1449,0.1493,0.1508,0.1493,0.1568,0.1561,0.1565,0.1558,0.1561,0.1562,0.1593,0.1517,0,0,0,0,0,0.1266,0.1272,0.1297,0.1302,0.131,0.1332,0.134,0.1356,0.1381,0.1391,0.1421,0.1459,0.1504,0.1525,0.156,0.1591,0.1702,0.1616,0.1618,0.1619,0.165,0.1843,0.1867,0.1607,0.1607,0.1607,0,0,0.1258,0.1274,0.1276,0.1297,0.1312,0.1336,0.1339,0.1351,0.1381,0.1398,0.144,0.1465,0.1514,0.1559,0.158,0.1575,0.1753,0.1622,0.1623,0.1653,0.1848,0.1874,0.1898,0.1608,0.1608,0.1608,0,0,0.1258,0.1258,0.1272,0.1286,0.1311,0.1328,0.133,0.1355,0.1376,0.1409,0.1443,0.1481,0.1529,0.1579,0.161,0.1641,0.1758,0.1648,0.1685,0.1871,0.1896,0.1918,0.2105,0.2144,0.1649,0.1649,0.1649,0,0.1254,0.1279,0.1276,0.1299,0.1323,0.1326,0.1358,0.1374,0.1408,0.1446,0.1425,0.1541,0.1548,0.1653,0.1652,0.1649,0.1787,0.1668,0.1879,0.1903,0.1927,0.2113,0.2157,0.1649,0.1649,0.1649,0.1649,0,0.1277,0.1296,0.1303,0.1341,0.1356,0.1379,0.1406,0.1427,0.1444,0.1478,0.1565,0.1588,0.1681,0.1664,0.1661,0.1821,0.1877,0.1862,0.1879,0.1954,0.2144,0.219,0.1649,0.1649,0.1649,0.1649,0,0,0.1302,0.1319,0.133,0.1363,0.1386,0.1414,0.145,0.1513,0.1594,0.1595,0.1725,0.1731,0.1768,0.1807,0.1821,0.193,0.2174,0.1962,0.1972,0.216,0.2632,0.2592,0.2639,0.2221,0.2229,0.2235,0.2704,0,0.1341,0.1387,0.1388,0.1452,0.1486,0.15,0.1556,0.1606,0.166,0.1779,0.1807,0.1928,0.1823,0.1902,0.1991,0.2147,0.2294,0.205,0.2522,0.2536,0.2502,0.2689,0.2602,0.3006,0.2749,0.2756,0.2762,0,0.1396,0.1421,0.1477,0.1544,0.1566,0.1608,0.173,0.1786,0.1915,0.1969,0.2067,0.2125,0.2275,0.2188,0.2506,0.2374,0.2515,0.2605,0.2627,0.2626,0.2581,0.2887,0.31,0.2987,0.2833,0.2827,0.2822,0,0.1453,0.1502,0.1554,0.1572,0.1635,0.1689,0.1745,0.1855,0.1952,0.2139,0.2256,0.2409,0.2562,0.2729,0.285,0.2752,0.3225,0.3127,0.323,0.323,0.3265,0.3253,0.3435,0.3407,0.3406,0.3405,0.3403,0,0.1518,0.1568,0.1592,0.1629,0.174,0.1765,0.1923,0.1996,0.216,0.2303,0.2391,0.2549,0.2715,0.2949,0.3025,0.3289,0.3396,0.3313,0.3374,0.3257,0.324,0.3225,0.3117,0.3422,0.3418,0.3415,0.3412,0,0.1594,0.1591,0.1672,0.1739,0.1771,0.187,0.2018,0.2137,0.2281,0.2492,0.2573,0.2783,0.3059,0.3216,0.3542,0.3556,0.3692,0.3836,0.3674,0.3704,0.3604,0.3498,0.3669,0.3567,0.4064,0.4066,0.4068,0,0.1642,0.1684,0.1764,0.1811,0.1851,0.1979,0.2068,0.2199,0.2315,0.2596,0.2706,0.3031,0.3192,0.3654,0.3783,0.403,0.3833,0.409,0.3835,0.3658,0.3589,0.3377,0.326,0.3915,0.3915,0.3916,0.3916,0,0.1757,0.1778,0.1831,0.1923,0.201,0.2101,0.2227,0.2316,0.2474,0.2644,0.2861,0.3022,0.3427,0.3625,0.3944,0.4045,0.3869,0.41,0.4004,0.3574,0.3283,0.3192,0.3535,0.3919,0.3919,0.3919,0.3918,0.3918,0.1857,0.1909,0.1964,0.2044,0.2118,0.2174,0.2236,0.2345,0.2499,0.2686,0.2872,0.3095,0.3427,0.3823,0.3913,0.4014,0.3896,0.3937,0.3868,0.3704,0.3448,0.3773,0.413,0.4131,0.4132,0.4132,0.4133,0,0.1975,0.1998,0.2075,0.2132,0.2171,0.221,0.2299,0.2327,0.2426,0.2644,0.2811,0.3168,0.3395,0.3633,0.3863,0.381,0.3624,0.3729,0.3422,0.3348,0.3779,0.3604,0.3755,0.3755,0.3755,0.3756,0.3756,0.3756,0.2041,0.2106,0.2105,0.2152,0.2172,0.2198,0.2213,0.2254,0.2372,0.2569,0.2774,0.2978,0.3305,0.3587,0.3632,0.3579,0.3296,0.3211,0.3137,0.3423,0.3434,0.3444,0.3257,0.3332,0.3332,0.2606,0.26,0.2596]},{"header":{"parameterUnit":"m.s-1","parameterCategory":2,"la1":30.2991,"la2":30.254,"lo1":-89.0895,"lo2":-89.0444,"dy":0.0017,"dx":0.0017,"nx":28,"ny":28,"refTime":"2023-09-13T09:00:00:Z","depth":"0","parameterNumber":3,"parameterNumberName":"V-component_of_CURRENTS"},"data":[0,0,0,0,0,0,0,0,0,0,0,0,0,0,0,0,0,0,0,0,0,0,0,0,0,0,0,0,0,0,0,0,0,0,0,0,0,0,0,0,0,0,0,0,0,0,0,0,0,0,0,0,0,0,0,0,0,0,-0.008,-0.008,0,-0.01,-0.0101,-0.0101,-0.0116,-0.0116,-0.0116,-0.0116,-0.0084,-0.0083,-0.0082,0,0,0,0,0,0,0,0,0,0,0,0,0,-0.0052,-0.0052,-0.008,-0.008,-0.008,-0.01,-0.0101,-0.0101,-0.0116,-0.0116,-0.0116,-0.0117,-0.0085,-0.0084,-0.0082,0,0,0,0,0,0,0,0,0,0,0,0,0,-0.0067,-0.0052,-0.0079,-0.009,-0.0092,-0.01,-0.0101,-0.0101,-0.0116,-0.0116,-0.0116,-0.0117,-0.0085,-0.0084,-0.0082,-0.0068,0,0,-0.0077,-0.0077,0,0,0,0,0,0,0,0,-0.0066,-0.0068,-0.0089,-0.009,-0.0091,-0.0106,-0.0079,-0.0087,-0.0116,-0.0106,-0.0116,-0.0117,-0.0087,-0.0085,-0.0089,-0.0066,-0.0065,-0.0077,-0.0076,-0.0076,-0.0075,0,0,0,0,0,0,0,-0.0065,-0.0067,-0.0087,-0.0089,-0.009,-0.0094,-0.0096,-0.0081,-0.0093,-0.0107,-0.0108,-0.0111,-0.0087,-0.009,-0.0088,-0.0064,-0.0077,-0.0076,-0.0075,-0.0074,-0.0108,-0.011,0,0,0,0,0,0,-0.0063,-0.0066,-0.0087,-0.0088,-0.0079,-0.0094,-0.0097,-0.0101,-0.0095,-0.0095,-0.0111,-0.0112,-0.0093,-0.009,-0.0087,-0.0114,-0.0076,-0.0074,-0.0073,-0.0106,-0.0108,-0.011,0,0,0,0,0,0,-0.0062,-0.0065,-0.0086,-0.0078,-0.0081,-0.0095,-0.0099,-0.0101,-0.0107,-0.0099,-0.0097,-0.0115,-0.0093,-0.0089,-0.009,-0.0111,-0.0074,-0.0072,-0.0104,-0.0107,-0.0109,-0.0139,0,0,0,0,0,0,-0.0061,-0.0064,-0.0068,-0.0078,-0.0081,-0.01,-0.0099,-0.0101,-0.0109,-0.011,-0.0101,-0.0099,-0.0093,-0.0092,-0.0088,-0.0108,-0.0071,-0.0102,-0.0105,-0.0109,-0.0136,-0.0142,-0.0148,0,0,0,0,0,-0.006,-0.0071,-0.0068,-0.007,-0.0085,-0.01,-0.0102,-0.0112,-0.0108,-0.0117,-0.0116,-0.0099,-0.0112,-0.0092,-0.0087,-0.0107,-0.01,-0.0104,-0.0108,-0.0133,-0.0141,-0.0148,0,0,0,0,0,0,-0.0057,-0.0073,-0.007,-0.0083,-0.0092,-0.0103,-0.0113,-0.0112,-0.0118,-0.0117,-0.0106,-0.0104,-0.012,-0.0111,-0.0089,-0.0132,-0.0109,-0.0113,-0.013,-0.0137,-0.0143,-0.0119,-0.007,0,0,0,0,0,-0.0056,-0.0074,-0.008,-0.0092,-0.0095,-0.01,-0.0106,-0.0111,-0.0117,-0.012,-0.0117,-0.0121,-0.0132,-0.0131,-0.0138,-0.0143,-0.0086,-0.0162,-0.0168,-0.0173,-0.0153,-0.0095,-0.0092,-0.0124,-0.0124,-0.0124,0,0,-0.006,-0.007,-0.008,-0.0093,-0.0099,-0.0109,-0.0105,-0.0118,-0.0131,-0.0113,-0.0131,-0.0136,-0.0141,-0.0162,-0.0169,-0.0154,-0.0134,-0.0178,-0.0182,-0.0159,-0.0098,-0.0094,-0.0091,-0.0127,-0.0126,-0.0126,0,0,-0.0075,-0.0081,-0.0097,-0.0105,-0.0115,-0.012,-0.0122,-0.0133,-0.0144,-0.0156,-0.016,-0.0175,-0.0183,-0.0196,-0.0202,-0.0242,-0.017,-0.0256,-0.0258,-0.0202,-0.0197,-0.0193,-0.0101,-0.0088,-0.0256,-0.0256,-0.0256,0,-0.0076,-0.0089,-0.0104,-0.0116,-0.0118,-0.0124,-0.013,-0.0147,-0.016,-0.0152,-0.0169,-0.0177,-0.0201,-0.0205,-0.0246,-0.0253,-0.0188,-0.0225,-0.0205,-0.0199,-0.0193,-0.0101,-0.0086,-0.0258,-0.0258,-0.0258,-0.0258,0,-0.0096,-0.0104,-0.0114,-0.0131,-0.0141,-0.0147,-0.0164,-0.0173,-0.0181,-0.0182,-0.0187,-0.0214,-0.0198,-0.0243,-0.0263,-0.025,-0.0204,-0.0217,-0.0173,-0.0191,-0.0093,-0.0077,-0.0261,-0.026,-0.026,-0.0259,0,0,-0.0095,-0.0122,-0.0123,-0.011,-0.0142,-0.0135,-0.017,-0.017,-0.0125,-0.0183,-0.0119,-0.0223,-0.0198,-0.0205,-0.0225,-0.0219,-0.0158,-0.0208,-0.0204,-0.0093,0.0013,-0.0003,0.0015,-0.0153,-0.0151,-0.0149,0.0073,0,-0.0097,-0.0105,-0.013,-0.0124,-0.0116,-0.0132,-0.0132,-0.0136,-0.0126,-0.0065,-0.0113,-0.0058,-0.0192,-0.0139,-0.0175,-0.012,-0.0118,-0.0214,-0.0006,0.0001,0.0008,0.0031,-0.0032,0.0155,0.0089,0.0092,0.0094,0,-0.0097,-0.0096,-0.0093,-0.0065,-0.0058,-0.005,0.0004,0.0006,0.0052,0.0076,0.0087,0.0102,0.011,0.0015,0.005,0.001,-0.0006,-0.0005,0.0005,0.0017,0.0015,0.0156,0.0188,-0.007,0.012,0.0118,0.0116,0,-0.0048,-0.0059,-0.0043,-0.0043,-0.0026,-0.0001,0.0027,0.0066,0.0149,0.0221,0.0342,0.0303,0.041,0.0334,0.0292,0.0209,0.0371,0.0274,0.0233,0.0236,0.0235,0.0232,0.0062,0.0279,0.0278,0.0277,0.0277,0,-0.0021,0.0,0.0001,0.0021,0.0112,0.0087,0.0223,0.0244,0.0366,0.0533,0.0462,0.0623,0.05,0.0562,0.0425,0.0422,0.0486,0.0262,0.029,0.022,0.0213,0.0031,-0.0089,0.0286,0.0284,0.0282,0.0281,0,0.005,0.0023,0.008,0.0114,0.0145,0.0232,0.0393,0.0523,0.0594,0.0832,0.0891,0.0961,0.1019,0.0888,0.086,0.068,0.0505,0.0587,0.0527,0.0539,0.0181,0.0065,0.0055,-0.0044,0.0579,0.0579,0.058,0,0.0091,0.0118,0.019,0.0271,0.0306,0.0434,0.0564,0.0648,0.0811,0.105,0.121,0.1327,0.1415,0.1361,0.1068,0.0876,0.0611,0.0679,0.0441,0.0172,0.0065,-0.001,-0.01,0.0453,0.0453,0.0453,0.0452,0,0.0215,0.0236,0.0298,0.0462,0.0602,0.0756,0.0939,0.1085,0.123,0.141,0.1658,0.1746,0.1676,0.1467,0.1185,0.0984,0.0481,0.0665,0.0404,-0.0034,-0.0136,-0.0219,0.032,0.045,0.045,0.045,0.045,0.0451,0.0349,0.0438,0.0541,0.0698,0.0858,0.1061,0.1193,0.1383,0.1619,0.1855,0.1946,0.208,0.1761,0.1344,0.1065,0.0447,0.0473,0.0188,0.0089,0.0054,-0.0133,0.0408,0.0535,0.0535,0.0536,0.0537,0.0537,0,0.0545,0.0631,0.0785,0.0968,0.1154,0.1194,0.1443,0.1557,0.179,0.2014,0.217,0.2098,0.1636,0.1145,0.0371,-0.0066,-0.0246,-0.0314,-0.0492,-0.0544,-0.0047,-0.0158,-0.0199,-0.0198,-0.0198,-0.0198,-0.0198,-0.0197,0.067,0.0845,0.0903,0.1202,0.1318,0.1536,0.1649,0.1793,0.1947,0.2156,0.2246,0.2311,0.1914,0.0564,-0.0436,-0.0662,-0.0974,-0.0997,-0.1116,-0.0888,-0.0852,-0.0819,-0.0959,-0.1167,-0.1168,-0.1619,-0.1624,-0.1627]}],[{"header":{"parameterUnit":"m.s-1","parameterCategory":2,"la1":30.2991,"la2":30.254,"lo1":-89.0895,"lo2":-89.0444,"dy":0.0017,"dx":0.0017,"nx":28,"ny":28,"refTime":"2023-09-13T09:00:00:Z","depth":"2","parameterNumber":2,"parameterNumberName":"U-component_of_CURRENTS"},"data":[0,0,0,0,0,0,0,0,0,0,0,0,0,0,0,0,0,0,0,0,0,0,0,0,0,0,0,0,0,0,0,0,0,0,0,0,0,0,0,0,0,0,0,0,0,0,0,0,0,0,0,0,0,0,0,0,0,0,0.1105,0.1105,0,0.1128,0.1129,0.1129,0.1175,0.1176,0.1176,0.1177,0.1195,0.1194,0.1194,0,0,0,0,0,0,0,0,0,0,0,0,0,0.1095,0.1095,0.1105,0.1105,0.1106,0.1128,0.1129,0.1129,0.1174,0.1176,0.1177,0.1178,0.1195,0.1194,0.1194,0,0,0,0,0,0,0,0,0,0,0,0,0,0.1106,0.1095,0.1105,0.1132,0.1134,0.1128,0.1129,0.1129,0.1174,0.1176,0.1177,0.1178,0.1195,0.1194,0.1194,0.1161,0,0,0.1192,0.1191,0,0,0,0,0,0,0,0,0.1106,0.1106,0.1127,0.113,0.1133,0.1151,0.1132,0.114,0.1174,0.1158,0.1177,0.1179,0.1179,0.1179,0.118,0.1162,0.1162,0.1192,0.1191,0.1191,0.1191,0,0,0,0,0,0,0,0.1105,0.1106,0.1114,0.1127,0.1131,0.1141,0.1144,0.1133,0.1159,0.116,0.1163,0.1166,0.118,0.118,0.1181,0.1163,0.1192,0.1191,0.1191,0.119,0.1189,0.119,0,0,0,0,0,0,0.1102,0.1105,0.1113,0.1114,0.1123,0.114,0.1143,0.1143,0.116,0.1164,0.1165,0.1169,0.1181,0.1181,0.1181,0.1214,0.1191,0.119,0.119,0.1189,0.1189,0.119,0,0,0,0,0,0,0.1101,0.1102,0.1112,0.1111,0.1113,0.1139,0.1138,0.1143,0.1151,0.1164,0.1169,0.117,0.1182,0.1182,0.1186,0.1213,0.119,0.1189,0.1189,0.1189,0.119,0.1235,0,0,0,0,0,0,0.1101,0.1101,0.1099,0.1111,0.1113,0.1117,0.1136,0.1142,0.115,0.1155,0.1169,0.1172,0.1183,0.1187,0.1185,0.1211,0.1189,0.1188,0.1189,0.1189,0.1233,0.1237,0.124,0,0,0,0,0,0.11,0.1096,0.1099,0.11,0.1109,0.1117,0.1119,0.1142,0.1149,0.1154,0.1166,0.1172,0.1191,0.1186,0.1184,0.1211,0.1188,0.1189,0.1189,0.1231,0.1236,0.124,0,0,0,0,0,0,0.1087,0.11,0.1104,0.1103,0.1112,0.1126,0.1131,0.1138,0.1148,0.1156,0.1166,0.1169,0.1188,0.1181,0.1176,0.1212,0.1194,0.1194,0.1226,0.123,0.1234,0.1275,0.1188,0,0,0,0,0,0.1081,0.1084,0.1095,0.1092,0.1099,0.111,0.1115,0.113,0.1141,0.1148,0.1155,0.1167,0.1186,0.1193,0.1201,0.1206,0.1255,0.1224,0.1228,0.1231,0.1262,0.135,0.1366,0.1192,0.1192,0.1192,0,0,0.1072,0.1081,0.1081,0.109,0.1099,0.1118,0.1118,0.1129,0.1151,0.1145,0.1169,0.1175,0.1188,0.1212,0.122,0.1213,0.1305,0.1232,0.1235,0.1265,0.1353,0.137,0.1386,0.1193,0.1193,0.1193,0,0,0.107,0.1067,0.1078,0.1089,0.1106,0.1117,0.1119,0.1134,0.115,0.116,0.1179,0.1204,0.1202,0.1242,0.1256,0.1277,0.132,0.1269,0.1325,0.1409,0.1425,0.144,0.1529,0.1552,0.1273,0.1273,0.1273,0,0.1064,0.1082,0.108,0.11,0.1121,0.1119,0.1147,0.1154,0.1169,0.1196,0.1175,0.1232,0.1229,0.1302,0.1314,0.1292,0.1348,0.1309,0.1419,0.1434,0.1449,0.1536,0.156,0.1276,0.1275,0.1275,0.1275,0,0.108,0.1098,0.1105,0.1137,0.1151,0.1171,0.1189,0.1204,0.1212,0.1234,0.1289,0.1294,0.1346,0.1337,0.1332,0.1433,0.1443,0.1414,0.1416,0.147,0.1557,0.1582,0.1279,0.1278,0.1277,0.1277,0,0,0.108,0.1113,0.1122,0.1156,0.118,0.1203,0.1232,0.128,0.1338,0.1333,0.142,0.143,0.145,0.1469,0.1471,0.153,0.1665,0.1519,0.1523,0.1624,0.1874,0.1804,0.1824,0.1661,0.1665,0.1669,0.1897,0,0.1107,0.1158,0.1167,0.1227,0.1263,0.1278,0.132,0.136,0.1393,0.147,0.1489,0.1567,0.1496,0.1549,0.1591,0.1661,0.1732,0.1608,0.1793,0.18,0.1745,0.1851,0.1666,0.1846,0.1921,0.1925,0.1928,0,0.1144,0.1177,0.1239,0.1309,0.1329,0.1367,0.1464,0.1503,0.1589,0.1623,0.1687,0.1713,0.1813,0.1739,0.1889,0.1818,0.1859,0.189,0.1899,0.1842,0.1776,0.1802,0.1888,0.1969,0.1966,0.1963,0.196,0,0.1183,0.1241,0.1299,0.1319,0.1386,0.1436,0.1483,0.1564,0.1631,0.1756,0.1836,0.1915,0.2011,0.2056,0.2091,0.2024,0.2258,0.2172,0.215,0.2146,0.203,0.2008,0.2296,0.2296,0.2295,0.2294,0.2294,0,0.1227,0.1281,0.1331,0.137,0.1466,0.1499,0.1621,0.1675,0.179,0.1899,0.1941,0.2052,0.21,0.2206,0.2196,0.2267,0.235,0.2208,0.2214,0.2036,0.2013,0.2137,0.2116,0.2303,0.2301,0.2299,0.2298,0,0.1272,0.1296,0.1377,0.1456,0.149,0.1571,0.1696,0.1785,0.1891,0.2045,0.2103,0.223,0.2369,0.2399,0.252,0.2432,0.2486,0.2484,0.2272,0.2247,0.2292,0.227,0.2502,0.2502,0.2501,0.2501,0.2501,0,0.1301,0.1343,0.1439,0.1495,0.1541,0.1653,0.1731,0.1833,0.1926,0.2139,0.2221,0.2411,0.2476,0.2622,0.2563,0.2574,0.258,0.2393,0.2204,0.2339,0.2322,0.23,0.2278,0.2084,0.208,0.2077,0.2075,0,0.1359,0.1392,0.1449,0.1549,0.164,0.1725,0.1842,0.191,0.2043,0.2163,0.2308,0.2379,0.2526,0.2447,0.2472,0.2428,0.2362,0.2332,0.2596,0.2029,0.1954,0.1933,0.1925,0.2049,0.2052,0.2054,0.2055,0.2056,0.1401,0.1442,0.1503,0.1591,0.1685,0.1743,0.1775,0.1879,0.1973,0.2057,0.2212,0.2238,0.2286,0.2201,0.2169,0.2148,0.2262,0.2121,0.2127,0.2137,0.2017,0.1942,0.2015,0.2017,0.2019,0.2021,0.2023,0,0.1414,0.1451,0.1537,0.1603,0.1652,0.1718,0.1801,0.1763,0.1794,0.1926,0.1964,0.1813,0.1796,0.1886,0.1803,0.1783,0.1729,0.1726,0.1636,0.1665,0.1689,0.1541,0.1417,0.1415,0.1413,0.1411,0,0,0.1423,0.1458,0.1475,0.1518,0.1573,0.1574,0.1579,0.1534,0.1573,0.1526,0.1552,0.1632,0.1791,0.1547,0.1542,0.1482,0.1554,0.143,0.1919,0.1842,0.1864,0.1927,0.1734,0,0,0,0,0]},{"header":{"parameterUnit":"m.s-1","parameterCategory":2,"la1":30.2991,"la2":30.254,"lo1":-89.0895,"lo2":-89.0444,"dy":0.0017,"dx":0.0017,"nx":28,"ny":28,"refTime":"2023-09-13T09:00:00:Z","depth":"2","parameterNumber":3,"parameterNumberName":"V-component_of_CURRENTS"},"data":[0,0,0,0,0,0,0,0,0,0,0,0,0,0,0,0,0,0,0,0,0,0,0,0,0,0,0,0,0,0,0,0,0,0,0,0,0,0,0,0,0,0,0,0,0,0,0,0,0,0,0,0,0,0,0,0,0,0,-0.0236,-0.0236,0,-0.0271,-0.0271,-0.0272,-0.0285,-0.0284,-0.0284,-0.0284,-0.0294,-0.0294,-0.0295,0,0,0,0,0,0,0,0,0,0,0,0,0,-0.0172,-0.0173,-0.0236,-0.0236,-0.0236,-0.0271,-0.0271,-0.0272,-0.0285,-0.0284,-0.0284,-0.0283,-0.0293,-0.0294,-0.0295,0,0,0,0,0,0,0,0,0,0,0,0,0,-0.0205,-0.0174,-0.0235,-0.0245,-0.0246,-0.0271,-0.0272,-0.0272,-0.0285,-0.0284,-0.0284,-0.0283,-0.0293,-0.0294,-0.0295,-0.0311,0,0,-0.0298,-0.0298,0,0,0,0,0,0,0,0,-0.0203,-0.0208,-0.0243,-0.0244,-0.0245,-0.0271,-0.0253,-0.0283,-0.0285,-0.0272,-0.0284,-0.0283,-0.0282,-0.0284,-0.0296,-0.0312,-0.0312,-0.0298,-0.0298,-0.0299,-0.0299,0,0,0,0,0,0,0,-0.0201,-0.0206,-0.0252,-0.0243,-0.0245,-0.0244,-0.0249,-0.0259,-0.0281,-0.0274,-0.0274,-0.0274,-0.0283,-0.0295,-0.0296,-0.0312,-0.0298,-0.0299,-0.0299,-0.0299,-0.0306,-0.0305,0,0,0,0,0,0,-0.0193,-0.0204,-0.0251,-0.0253,-0.022,-0.0246,-0.0251,-0.0265,-0.0282,-0.0283,-0.0275,-0.0275,-0.0294,-0.0295,-0.0296,-0.0278,-0.0299,-0.03,-0.03,-0.0306,-0.0306,-0.0305,0,0,0,0,0,0,-0.0192,-0.0197,-0.0249,-0.0226,-0.0232,-0.0247,-0.0263,-0.0266,-0.0271,-0.0282,-0.0284,-0.0275,-0.0293,-0.0295,-0.0294,-0.028,-0.03,-0.0301,-0.0306,-0.0306,-0.0305,-0.0267,0,0,0,0,0,0,-0.019,-0.0197,-0.0204,-0.0226,-0.0233,-0.0262,-0.0263,-0.0267,-0.0271,-0.0271,-0.0284,-0.0285,-0.0293,-0.0292,-0.0295,-0.0282,-0.0301,-0.0307,-0.0306,-0.0305,-0.0268,-0.0265,-0.0262,0,0,0,0,0,-0.0188,-0.0194,-0.0205,-0.021,-0.0243,-0.0262,-0.0266,-0.0275,-0.0271,-0.0277,-0.0277,-0.0284,-0.0289,-0.0293,-0.0296,-0.0283,-0.0307,-0.0306,-0.0306,-0.027,-0.0265,-0.0262,0,0,0,0,0,0,-0.0166,-0.0197,-0.0208,-0.0223,-0.0241,-0.0263,-0.0262,-0.0272,-0.0279,-0.0269,-0.0282,-0.0283,-0.0276,-0.0287,-0.0291,-0.0283,-0.0299,-0.0298,-0.027,-0.0267,-0.0263,-0.0271,-0.0302,0,0,0,0,0,-0.0167,-0.0182,-0.0209,-0.022,-0.0225,-0.0244,-0.025,-0.0257,-0.0265,-0.0268,-0.0277,-0.0279,-0.0278,-0.0277,-0.0283,-0.0282,-0.0313,-0.0275,-0.0271,-0.0268,-0.0277,-0.0309,-0.031,-0.0302,-0.0302,-0.0302,0,0,-0.016,-0.0178,-0.0186,-0.0216,-0.0226,-0.0232,-0.0247,-0.025,-0.0249,-0.0266,-0.0264,-0.0269,-0.0275,-0.027,-0.0268,-0.0275,-0.0287,-0.0267,-0.0265,-0.0275,-0.0308,-0.0309,-0.031,-0.0302,-0.0302,-0.0302,0,0,-0.0148,-0.017,-0.0176,-0.0189,-0.0202,-0.0215,-0.0214,-0.0234,-0.0236,-0.0241,-0.0243,-0.0242,-0.0252,-0.0251,-0.025,-0.0235,-0.0269,-0.0232,-0.0221,-0.0251,-0.0253,-0.0254,-0.0297,-0.0303,-0.023,-0.023,-0.023,0,-0.0139,-0.0153,-0.0178,-0.0183,-0.0184,-0.0205,-0.0202,-0.0211,-0.0227,-0.0228,-0.0233,-0.0243,-0.0244,-0.0234,-0.0224,-0.0227,-0.0258,-0.0233,-0.0248,-0.025,-0.0252,-0.0296,-0.0302,-0.0228,-0.0228,-0.0228,-0.0228,0,-0.0132,-0.0139,-0.0138,-0.0155,-0.0163,-0.016,-0.0174,-0.0179,-0.0184,-0.0198,-0.0198,-0.0208,-0.0218,-0.0209,-0.0211,-0.0216,-0.0239,-0.024,-0.0258,-0.025,-0.0297,-0.0305,-0.0225,-0.0226,-0.0226,-0.0227,0,0,-0.0125,-0.0133,-0.0133,-0.0126,-0.0143,-0.0145,-0.0142,-0.0152,-0.0145,-0.0167,-0.0166,-0.0168,-0.0186,-0.0188,-0.019,-0.021,-0.0244,-0.0229,-0.0232,-0.0274,-0.0328,-0.0338,-0.0348,-0.025,-0.0251,-0.0252,-0.0355,0,-0.0111,-0.0103,-0.0116,-0.0102,-0.0094,-0.0109,-0.0107,-0.0115,-0.0126,-0.0133,-0.0148,-0.0148,-0.0173,-0.0167,-0.0197,-0.0219,-0.0262,-0.0217,-0.0329,-0.0332,-0.0343,-0.0356,-0.0302,-0.0389,-0.0363,-0.0364,-0.0365,0,-0.0103,-0.0094,-0.0078,-0.0065,-0.0063,-0.006,-0.0056,-0.0056,-0.0073,-0.0082,-0.0105,-0.0124,-0.0144,-0.0166,-0.0248,-0.022,-0.0283,-0.0314,-0.0319,-0.035,-0.0357,-0.0392,-0.0404,-0.0379,-0.0378,-0.0377,-0.0376,0,-0.0079,-0.0068,-0.0049,-0.0046,-0.004,-0.0031,-0.0027,-0.004,-0.0017,-0.0047,-0.0032,-0.0097,-0.0089,-0.0189,-0.0264,-0.0259,-0.0362,-0.0364,-0.0447,-0.0449,-0.0436,-0.0435,-0.0453,-0.0453,-0.0453,-0.0453,-0.0452,0,-0.0062,-0.0045,-0.0031,-0.002,0.0019,0.0003,0.0039,0.0027,0.0034,0.0069,0.0001,0.0016,-0.0092,-0.0158,-0.0265,-0.038,-0.0377,-0.0459,-0.0477,-0.0421,-0.0418,-0.0432,-0.0428,-0.0457,-0.0456,-0.0455,-0.0454,0,-0.0041,-0.0038,-0.0005,0.0017,0.0033,0.0061,0.0112,0.014,0.0128,0.0173,0.0175,0.0117,0.0023,-0.0107,-0.0249,-0.035,-0.0476,-0.0527,-0.0461,-0.047,-0.0549,-0.0541,-0.0634,-0.0635,-0.0636,-0.0637,-0.0638,0,-0.0033,-0.0016,0.0037,0.0079,0.0096,0.0144,0.0187,0.0191,0.0226,0.0239,0.0267,0.0198,0.0151,-0.0077,-0.026,-0.047,-0.0501,-0.0567,-0.055,-0.0559,-0.0568,-0.0559,-0.0551,-0.0523,-0.0523,-0.0523,-0.0523,0,-0.0007,0.0012,0.005,0.0136,0.0193,0.0261,0.0315,0.0353,0.0361,0.0399,0.0408,0.0373,0.0183,0.0001,-0.0275,-0.0412,-0.0529,-0.057,-0.0599,-0.0479,-0.0461,-0.0467,-0.0462,-0.0521,-0.0521,-0.0521,-0.0521,-0.0521,0.0022,0.0061,0.0116,0.0191,0.0271,0.0342,0.0394,0.0457,0.0511,0.0564,0.0515,0.0498,0.0282,-0.0035,-0.0271,-0.0501,-0.0515,-0.0594,-0.0592,-0.0591,-0.0552,-0.0536,-0.0604,-0.0605,-0.0605,-0.0606,-0.0606,0,0.0046,0.0093,0.0171,0.0249,0.0325,0.0369,0.046,0.052,0.0589,0.0661,0.0681,0.0508,0.0292,0.0048,-0.0276,-0.0502,-0.0498,-0.0572,-0.0514,-0.0515,-0.0516,-0.0472,-0.0504,-0.0504,-0.0505,-0.0505,0,0,0.0062,0.0122,0.0151,0.0257,0.0332,0.0441,0.0494,0.0613,0.0693,0.0755,0.0775,0.0725,0.0404,0.0191,-0.0116,-0.0299,-0.0349,-0.0332,-0.0393,-0.0289,-0.0287,-0.0512,-0.0443,0,0,0,0,0]}],[{"header":{"parameterUnit":"m.s-1","parameterCategory":2,"la1":30.2991,"la2":30.254,"lo1":-89.0895,"lo2":-89.0444,"dy":0.0017,"dx":0.0017,"nx":28,"ny":28,"refTime":"2023-09-13T09:00:00:Z","depth":"4","parameterNumber":2,"parameterNumberName":"U-component_of_CURRENTS"},"data":[0,0,0,0,0,0,0,0,0,0,0,0,0,0,0,0,0,0,0,0,0,0,0,0,0,0,0,0,0,0,0,0,0,0,0,0,0,0,0,0,0,0,0,0,0,0,0,0,0,0,0,0,0,0,0,0,0,0,0.0621,0.0621,0,0.0638,0.0638,0.0638,0.0677,0.0678,0.0679,0.068,0.0682,0.0682,0.0681,0,0,0,0,0,0,0,0,0,0,0,0,0,0.0596,0.0596,0.0621,0.0621,0.0621,0.0638,0.0638,0.0638,0.0677,0.0678,0.0679,0.068,0.0683,0.0682,0.0681,0,0,0,0,0,0,0,0,0,0,0,0,0,0.0609,0.0597,0.0621,0.0642,0.0645,0.0638,0.0638,0.0638,0.0677,0.0678,0.0679,0.068,0.0683,0.0682,0.0681,0.0651,0,0,0.0678,0.0677,0,0,0,0,0,0,0,0,0.0609,0.061,0.0639,0.0641,0.0643,0.0657,0.0631,0.0642,0.0677,0.0665,0.068,0.0681,0.0672,0.0672,0.0672,0.0651,0.0651,0.0678,0.0677,0.0677,0.0676,0,0,0,0,0,0,0,0.0608,0.061,0.0627,0.0639,0.0642,0.0643,0.0646,0.0633,0.0661,0.0666,0.0669,0.067,0.0673,0.0673,0.0673,0.0651,0.0678,0.0677,0.0676,0.0676,0.0709,0.0711,0,0,0,0,0,0,0.0606,0.0609,0.0627,0.0628,0.0629,0.0642,0.0646,0.0651,0.0661,0.0664,0.0669,0.0672,0.0674,0.0674,0.0673,0.0731,0.0677,0.0676,0.0675,0.0708,0.0709,0.0711,0,0,0,0,0,0,0.0605,0.0607,0.0626,0.0619,0.0621,0.0642,0.0647,0.0651,0.0672,0.0664,0.0667,0.0689,0.0675,0.0674,0.0694,0.0728,0.0675,0.0674,0.0706,0.0708,0.071,0.0788,0,0,0,0,0,0,0.0604,0.0607,0.0617,0.0619,0.0622,0.0644,0.0646,0.065,0.067,0.0675,0.0681,0.0682,0.0676,0.0696,0.0694,0.0726,0.0674,0.0704,0.0707,0.071,0.0783,0.0792,0.08,0,0,0,0,0,0.0603,0.0614,0.0617,0.062,0.0633,0.0645,0.0647,0.0665,0.067,0.0687,0.0698,0.0683,0.0712,0.0696,0.0693,0.0726,0.0703,0.0706,0.0709,0.078,0.0791,0.08,0,0,0,0,0,0,0.061,0.0618,0.0623,0.0636,0.0649,0.0652,0.0668,0.0672,0.0693,0.0703,0.0694,0.0696,0.0724,0.0712,0.0695,0.0745,0.0707,0.071,0.0762,0.0772,0.078,0.0805,0.0673,0,0,0,0,0,0.0613,0.0625,0.0632,0.0645,0.0654,0.0662,0.067,0.0683,0.0695,0.0706,0.0716,0.0725,0.073,0.0743,0.0742,0.0764,0.0758,0.0785,0.0794,0.0801,0.082,0.082,0.083,0.0722,0.0722,0.0722,0,0,0.0618,0.0625,0.0632,0.0647,0.0659,0.0672,0.0672,0.0695,0.0714,0.07,0.0742,0.0748,0.074,0.0773,0.0786,0.0773,0.0834,0.0805,0.0812,0.0827,0.0825,0.0835,0.0844,0.0724,0.0724,0.0723,0,0,0.0631,0.0643,0.0657,0.0669,0.069,0.0694,0.0704,0.0726,0.075,0.0778,0.078,0.0814,0.0819,0.0838,0.0838,0.0889,0.087,0.0891,0.0963,0.0963,0.0972,0.0979,0.1007,0.1016,0.0905,0.0905,0.0905,0,0.0635,0.0652,0.0665,0.068,0.0691,0.0705,0.0722,0.0742,0.0773,0.08,0.0804,0.0848,0.085,0.0888,0.0929,0.0909,0.0915,0.0924,0.0974,0.0981,0.0988,0.1013,0.1023,0.0909,0.0908,0.0908,0.0908,0,0.0654,0.0672,0.0684,0.0706,0.0722,0.0741,0.0764,0.0805,0.0831,0.0849,0.0906,0.0923,0.0954,0.0967,0.0971,0.1029,0.1021,0.0975,0.0948,0.1003,0.1027,0.1035,0.0915,0.0913,0.0912,0.0911,0,0,0.0641,0.0688,0.0691,0.071,0.0737,0.0752,0.0798,0.0841,0.0881,0.0926,0.0976,0.1024,0.1049,0.1055,0.1066,0.1097,0.1166,0.1081,0.1079,0.1109,0.1196,0.1135,0.1138,0.1127,0.1129,0.113,0.1201,0,0.0649,0.0685,0.0704,0.0738,0.0757,0.0793,0.0829,0.0875,0.0922,0.0979,0.1017,0.1066,0.1071,0.1112,0.1138,0.1156,0.1189,0.1153,0.1137,0.1138,0.1076,0.1145,0.1134,0.1207,0.1209,0.1211,0.1211,0,0.065,0.0676,0.0715,0.0763,0.0775,0.0805,0.0879,0.0916,0.0993,0.1038,0.11,0.1122,0.1203,0.118,0.1245,0.1224,0.123,0.1238,0.1238,0.1161,0.1092,0.1135,0.1226,0.1225,0.1224,0.1223,0.1222,0,0.0628,0.0678,0.0712,0.0726,0.0784,0.0829,0.087,0.0945,0.0998,0.1095,0.1153,0.1203,0.1265,0.1269,0.1303,0.1284,0.1352,0.1302,0.1252,0.1248,0.1244,0.1235,0.1333,0.1333,0.1333,0.1333,0.1333,0,0.0613,0.0639,0.0715,0.0733,0.0787,0.0832,0.0901,0.0967,0.1058,0.1111,0.119,0.1239,0.1295,0.1332,0.1326,0.1328,0.136,0.1292,0.1265,0.1279,0.1272,0.1252,0.1241,0.1336,0.1335,0.1334,0.1334,0,0.0574,0.0622,0.0667,0.0747,0.0779,0.0823,0.0925,0.097,0.1081,0.1161,0.1204,0.1307,0.1363,0.1395,0.1421,0.1372,0.1362,0.1343,0.1398,0.1368,0.1259,0.1252,0.1308,0.1307,0.1305,0.1304,0.1304,0,0.0557,0.0576,0.067,0.0705,0.0749,0.0822,0.0863,0.0975,0.1027,0.1173,0.1202,0.1317,0.136,0.1365,0.1389,0.1387,0.1356,0.1355,0.1289,0.129,0.1258,0.1253,0.1248,0.1302,0.1301,0.1301,0.1301,0,0.0517,0.0557,0.0595,0.067,0.0729,0.0773,0.0854,0.0893,0.1006,0.1122,0.1187,0.1229,0.1295,0.1317,0.1346,0.1319,0.1357,0.1341,0.1343,0.1281,0.1282,0.1251,0.1247,0.1296,0.1297,0.1297,0.1297,0,0.0485,0.0503,0.0561,0.0621,0.0682,0.0706,0.0755,0.082,0.0891,0.1065,0.1066,0.1171,0.1265,0.1281,0.1279,0.1287,0.1263,0.121,0.1218,0.1224,0.1162,0.1149,0.1122,0,0,0,0,0,0.0447,0.046,0.0507,0.0563,0.0615,0.0652,0.0734,0.0783,0.0901,0.0925,0.1005,0.1051,0.1107,0.1155,0.1147,0.1233,0.1255,0.1217,0.1194,0.1272,0.1277,0.1211,0,0,0,0,0,0,0.042,0.0455,0.0481,0.0496,0.0522,0.0566,0.0609,0.0687,0.0715,0.0845,0.0881,0.0991,0.1056,0.1102,0.1127,0.1143,0.1108,0.129,0.1288,0.1269,0.1274,0.1278,0.1211,0,0,0,0,0]},{"header":{"parameterUnit":"m.s-1","parameterCategory":2,"la1":30.2991,"la2":30.254,"lo1":-89.0895,"lo2":-89.0444,"dy":0.0017,"dx":0.0017,"nx":28,"ny":28,"refTime":"2023-09-13T09:00:00:Z","depth":"4","parameterNumber":3,"parameterNumberName":"V-component_of_CURRENTS"},"data":[0,0,0,0,0,0,0,0,0,0,0,0,0,0,0,0,0,0,0,0,0,0,0,0,0,0,0,0,0,0,0,0,0,0,0,0,0,0,0,0,0,0,0,0,0,0,0,0,0,0,0,0,0,0,0,0,0,0,-0.0109,-0.0109,0,-0.0133,-0.0133,-0.0134,-0.0201,-0.0202,-0.0203,-0.0204,-0.0295,-0.0297,-0.0298,0,0,0,0,0,0,0,0,0,0,0,0,0,-0.0103,-0.0103,-0.0109,-0.0109,-0.0109,-0.0133,-0.0133,-0.0134,-0.0201,-0.0202,-0.0204,-0.0205,-0.0295,-0.0296,-0.0298,0,0,0,0,0,0,0,0,0,0,0,0,0,-0.0117,-0.0104,-0.0109,-0.0143,-0.0147,-0.0133,-0.0133,-0.0134,-0.02,-0.0202,-0.0204,-0.0206,-0.0294,-0.0296,-0.0298,-0.0272,0,0,-0.0304,-0.0305,0,0,0,0,0,0,0,0,-0.0116,-0.0117,-0.0138,-0.0141,-0.0145,-0.0164,-0.0165,-0.0183,-0.02,-0.0182,-0.0204,-0.0207,-0.0255,-0.026,-0.0263,-0.0277,-0.0281,-0.0304,-0.0305,-0.0306,-0.0307,0,0,0,0,0,0,0,-0.0115,-0.0116,-0.0121,-0.0138,-0.0142,-0.0152,-0.0156,-0.0168,-0.0211,-0.0184,-0.0188,-0.0187,-0.0258,-0.026,-0.0265,-0.0282,-0.0304,-0.0306,-0.0307,-0.0308,-0.0311,-0.031,0,0,0,0,0,0,-0.0106,-0.0115,-0.012,-0.0121,-0.0132,-0.015,-0.0155,-0.0158,-0.0209,-0.0218,-0.0185,-0.019,-0.0256,-0.0263,-0.0269,-0.0267,-0.0306,-0.0308,-0.0309,-0.0312,-0.031,-0.0309,0,0,0,0,0,0,-0.0106,-0.0106,-0.0119,-0.0117,-0.0119,-0.0148,-0.015,-0.0157,-0.0171,-0.0209,-0.022,-0.0194,-0.0258,-0.0266,-0.0284,-0.027,-0.0309,-0.031,-0.0313,-0.0311,-0.031,-0.0247,0,0,0,0,0,0,-0.0106,-0.0106,-0.0106,-0.0116,-0.0119,-0.0117,-0.0149,-0.0156,-0.0166,-0.0173,-0.0219,-0.0229,-0.026,-0.0281,-0.0286,-0.0274,-0.0312,-0.0314,-0.0312,-0.031,-0.0251,-0.0244,-0.0238,0,0,0,0,0,-0.0105,-0.0094,-0.0106,-0.0107,-0.0118,-0.0116,-0.0118,-0.0147,-0.0164,-0.0167,-0.0196,-0.0229,-0.0272,-0.0282,-0.0288,-0.0276,-0.0315,-0.0313,-0.0311,-0.0254,-0.0245,-0.0238,0,0,0,0,0,0,-0.0094,-0.01,-0.0114,-0.0107,-0.0114,-0.0127,-0.0127,-0.0142,-0.0165,-0.0175,-0.0215,-0.0226,-0.0237,-0.0259,-0.0269,-0.0269,-0.0298,-0.0297,-0.0253,-0.0245,-0.0239,-0.024,-0.0313,0,0,0,0,0,-0.0088,-0.0081,-0.0093,-0.0087,-0.0091,-0.0108,-0.0111,-0.0128,-0.0145,-0.0158,-0.0187,-0.0213,-0.0227,-0.024,-0.0259,-0.0257,-0.0294,-0.0252,-0.0245,-0.024,-0.0244,-0.0277,-0.0274,-0.0302,-0.0302,-0.0302,0,0,-0.0081,-0.0081,-0.008,-0.0083,-0.0093,-0.0083,-0.0116,-0.0117,-0.0108,-0.0162,-0.0165,-0.0193,-0.0221,-0.0223,-0.0229,-0.0244,-0.0252,-0.0237,-0.0232,-0.024,-0.0274,-0.0272,-0.027,-0.03,-0.03,-0.0301,0,0,-0.0055,-0.0065,-0.0054,-0.0054,-0.0061,-0.0065,-0.0064,-0.0079,-0.0092,-0.0091,-0.0126,-0.0145,-0.0166,-0.0184,-0.0193,-0.0159,-0.0217,-0.0165,-0.0135,-0.0166,-0.0165,-0.0164,-0.0212,-0.0216,-0.0161,-0.0161,-0.0161,0,-0.0046,-0.0035,-0.005,-0.0036,-0.0029,-0.0054,-0.0037,-0.0041,-0.0059,-0.0063,-0.0087,-0.0118,-0.0144,-0.0143,-0.0137,-0.0145,-0.0183,-0.0163,-0.0159,-0.0159,-0.0159,-0.0209,-0.0214,-0.0158,-0.0158,-0.0159,-0.0159,0,-0.0017,-0.0005,0.0004,0.0015,0.0021,0.0032,0.0027,0.0025,0.0011,0.0002,-0.001,-0.0048,-0.0071,-0.0074,-0.0098,-0.0104,-0.0138,-0.0148,-0.0181,-0.0153,-0.0207,-0.0213,-0.0153,-0.0154,-0.0155,-0.0156,0,0,0.0001,0.0022,0.0025,0.0037,0.0049,0.0056,0.0077,0.0085,0.0088,0.0068,0.0064,0.0046,0.0009,-0.0005,-0.0038,-0.0065,-0.0099,-0.0108,-0.0112,-0.0161,-0.019,-0.0173,-0.018,-0.0115,-0.0115,-0.0116,-0.0229,0,0.0028,0.0064,0.007,0.0108,0.0124,0.012,0.0143,0.0146,0.0132,0.012,0.0088,0.0067,0.0043,0.0016,-0.0008,-0.0085,-0.0114,-0.0069,-0.0206,-0.0211,-0.0203,-0.0185,-0.0118,-0.0234,-0.0235,-0.0237,-0.0237,0,0.0049,0.0074,0.0113,0.0149,0.0154,0.0177,0.0192,0.0208,0.0195,0.0175,0.0151,0.0111,0.0069,0.004,-0.0062,-0.0038,-0.0107,-0.0162,-0.0168,-0.0181,-0.0206,-0.0267,-0.025,-0.0249,-0.0248,-0.0247,-0.0247,0,0.0057,0.0103,0.0136,0.0148,0.0185,0.0202,0.022,0.0222,0.0224,0.0197,0.0173,0.0131,0.0078,0.0008,-0.0097,-0.0092,-0.0222,-0.0228,-0.0274,-0.0275,-0.0287,-0.0287,-0.0294,-0.0293,-0.0293,-0.0293,-0.0293,0,0.0081,0.0107,0.0141,0.0159,0.0195,0.0217,0.024,0.0244,0.0238,0.0238,0.0194,0.0162,0.0063,-0.0018,-0.0098,-0.0207,-0.0221,-0.0272,-0.0297,-0.0258,-0.0253,-0.0293,-0.0291,-0.0297,-0.0296,-0.0295,-0.0295,0,0.0081,0.0104,0.0141,0.0185,0.0197,0.0221,0.0251,0.0259,0.0251,0.024,0.0227,0.0159,0.0059,-0.0037,-0.0173,-0.022,-0.0317,-0.035,-0.0314,-0.0335,-0.0355,-0.0349,-0.0419,-0.0419,-0.0419,-0.0419,-0.0419,0,0.0083,0.0101,0.0149,0.0163,0.0184,0.0218,0.0236,0.0257,0.0265,0.0243,0.0233,0.014,0.0088,-0.0085,-0.0188,-0.0334,-0.0344,-0.0401,-0.0359,-0.0348,-0.0366,-0.0359,-0.0353,-0.042,-0.042,-0.042,-0.042,0,0.0081,0.0096,0.0124,0.0156,0.018,0.0221,0.0253,0.0261,0.0283,0.0264,0.0241,0.0163,0.0048,-0.0073,-0.0191,-0.029,-0.0364,-0.0404,-0.0404,-0.0365,-0.035,-0.0366,-0.036,-0.042,-0.042,-0.042,-0.042,0,0.007,0.0083,0.0113,0.0149,0.0179,0.0226,0.0246,0.027,0.0285,0.0277,0.0264,0.0161,0.0096,-0.0054,-0.0157,-0.0254,-0.0275,-0.0295,-0.0301,-0.0302,-0.0221,-0.0182,-0.0224,0,0,0,0,0,0.0058,0.0076,0.0102,0.0151,0.0186,0.022,0.0258,0.0278,0.0295,0.0289,0.029,0.02,0.0055,-0.002,-0.0113,-0.0179,-0.0309,-0.0292,-0.0338,-0.0424,-0.0423,-0.0345,0,0,0,0,0,0,0.0043,0.0067,0.0097,0.0152,0.019,0.0241,0.0276,0.0292,0.0298,0.0296,0.0219,0.0186,0.0035,0.0114,-0.0111,-0.0144,-0.0184,-0.0365,-0.0366,-0.0425,-0.0424,-0.0423,-0.0342,0,0,0,0,0]}]]